Volver al catálogo

STARLINK-4255

ActivoComunicacionesVLEO
NORAD 53003·PAYLOAD·🇺🇸 United States

Lanzado Jul 7, 2022 desde Cape Canaveral Space Force Station

Loading…

Próximos Pases (próximas 24 horas)

TLE

ActualizadoSource: CelesTrak SupGP

Época: Sep 14, 2026, 21:35 UTC

1 53003C 22076T   26257.89979167 -.00001143  00000+0 -33771-4 0  2578
2 53003  53.1588 309.5552 0001365  81.2050 119.9750 15.34387325    17

Sigue STARLINK-4255 en tiempo real con AllMySat

Download on the App Store